Regional Weather Roundup
Issued by NWS

Home | Current Version | Previous Version | Graphics & Text | Print | Product List | Glossary On
Versions: 1 2 3 4 5 6 7 8 9 10 11 12 13 14 15 16 17 18 19 20 21 22 23 24 25 26 27 28 29 30 31 32 33 34 35 36 37 38 39 40 41 42 43 44 45 46 47 48 49 50
000
ASUS45 KPSR 211810
RWRAZ

ARIZONA REGIONAL HOURLY WEATHER ROUNDUP
NATIONAL WEATHER SERVICE PHOENIX AZ
1100 AM MST THU AUG 21 2014

NOTE: FAIR INDICATES FEW OR NO CLOUDS BELOW 12,000 FEET WITH NO
SIGNIFICANT WEATHER AND/OR OBSTRUCTIONS TO VISIBILITY.

AZZ001>003-036-211900-
NORTHWEST ARIZONA

CITY           SKY/WX    TMP DP  RH WIND       PRES   REMARKS
BULLHEAD CITY  CLOUDY    86  61  42 S18       29.93R
KINGMAN        TSTM      66  55  67 NE14G24   30.11R
6HR MIN TEMP:  68; 6HR MAX TEMP:  84; 6HR PCP:  0.34;

$$

AZZ004>008-015-016-018-211900-
NORTH CENTRAL ARIZONA

CITY           SKY/WX    TMP DP  RH WIND       PRES   REMARKS
GRAND CANYON   CLOUDY    66  46  48 CALM      30.30
WILLIAMS       CLOUDY    66  46  48 CALM      30.35F
PRESCOTT       CLOUDY    69  51  52 SW12G21   30.20R
6HR MIN TEMP:  56; 6HR MAX TEMP:  70;

FLAGSTAFF      CLOUDY    67  45  45 NE7       30.31S
6HR MIN TEMP:  46; 6HR MAX TEMP:  68;

PAYSON         CLOUDY    75  54  46 VRB6      30.20F
PAGE           CLOUDY    80  44  27 N5        30.13F
6HR MIN TEMP:  65; 6HR MAX TEMP:  81;

$$

AZZ009>014-017-211900-
NORTHEAST ARIZONA

CITY           SKY/WX    TMP DP  RH WIND       PRES   REMARKS
WINSLOW        CLOUDY    78  48  34 CALM      30.17F
6HR MIN TEMP:  60; 6HR MAX TEMP:  79;

SAINT JOHNS    MOSUNNY   78  48  34 NE7       30.20F
6HR MIN TEMP:  58; 6HR MAX TEMP:  78;

SHOW LOW       CLOUDY    70  45  40 N8        30.27S
$$

AZZ023-211900-
GREATER PHOENIX AREA

CITY           SKY/WX    TMP DP  RH WIND       PRES   REMARKS
PHOENIX        CLOUDY    84  58  40 W18G28    29.98R
6HR MIN TEMP:  83; 6HR MAX TEMP:  88;

BUCKEYE          N/A     75  66  73 NE14      29.97F
GLENDALE       PTSUNNY   81  61  50 SW14G21   30.00S
LUKE AFB       NOT AVBL
6HR MIN TEMP:  78; 6HR MAX T  54  33 W18       29.99R
6HR MIN TEMP:  78; 6HR MAX TEMP:  87;

SCOTTSDALE     PTSUNNY   86  62  44 W8        29.99F
6HR MIN TEMP:  80; 6HR MAX TEMP:  87;

MESA-FALCON    CLOUDY    86  59  39 W17       29.98R
MESA-GATEWAY   PTSUNNY   88  57  35 W14       30.00R
CHANDLER       PTSUNNY   88  59  37 W17       29.98R
$$

AZZ027-028-211900-
SOUTHWEST MARICOPA COUNTY AND PINAL COUNTY

CITY           SKY/WX    TMP DP  RH WIND       PRES   REMARKS
CASA GRANDE    CLOUDY    81  63  54 W15G22    30.00R
6HR MIN TEMP:  79; 6HR MAX TEMP:  86;

GILA BEND      PTCLDY    88  55  33 NE12G18   29.95F
$$

AZZ503-504-507>509-211900-
SOUTHEAST ARIZONA

CITY           SKY/WX    TMP DP  RH WIND       PRES   REMARKS
TUCSON         CLOUDY    83  63  50 W8        30.06S
6HR MIN TEMP:  76; 6HR MAX TEMP:  83;

DAVIS-MONTHAN  CLOUDY    81  62  53 VRB2      30.04F
6HR MIN TEMP:  73; 6HR MAX TEMP:  81;

RYAN FIELD       N/A     82  61  47 W3        30.05
NOGALES        CLOUDY    76  63  64 VRB5      30.12S
6HR MIN TEMP:  66; 6HR MAX TEMP:  77; 6HR PCP:  0.01;

SIERRA VISTA   PTSUNNY   79  59  50 SE6       30.16F
DOUGLAS        SUNNY     79  59  50 CALM      30.13F
6HR MIN TEMP:  64; 6HR MAX TEMP:  79;

SAFFORD        MOSUNNY   84  57  39 W6        30.04F
6HR MIN TEMP:  65; 6HR MAX TEMP:  84;

$$

AZZ020-021-025-026-031-211900-
SOUTHWEST ARIZONA

CITY           SKY/WX    TMP DP  RH WIND       PRES   REMARKS
YUMA           MOSUNNY   98  56  24 S13G22    29.86F
6HR MIN TEMP:  82; 6HR MAX TEMP:  98;

$$

CAZ031-033-041-043-047-048-061-211900-
SOUTHERN CALIFORNIA

CITY           SKY/WX    TMP DP  RH WIND       PRES   REMARKS
DOWNTOWN L.A.  SUNNY     77  62  59 VRB3      29.95S
6HR MIN TEMP:  65; 6HR MAX TEMP:  77;

L.A. AIRPORT   PTSUNNY   72  61  68 W10       29.97S
6HR MIN TEMP:  67; 6HR MAX TEMP:  73;

SAN DIEGO      PTSUNNY   75  63  66 W9        29.97S
6HR MIN TEMP:  71; 6HR MAX TEMP:  76;

BURBANK        SUNNY     76  59  55 E5        29.96S
6HR MIN TEMP:  65; 6HR MAX TEMP:  76;

ONTARIO        MOSUNNY   78  60  53 S3        29.96S
6HR MIN TEMP:  64; 6HR MAX TEMP:  78;

RIVERSIDE      MOSUNNY   76  62  62 SW3       29.97S
6HR MIN TEMP:  64; 6HR MAX TEMP:  76;

PALM SPRINGS   MOSUNNY   92  53  26 CALM      29.89S
6HR MIN TEMP:  76; 6HR MAX TEMP:  93;

EL CENTRO NAS  MOSUNNY   96  53  23 NE6       29.84F
6HR MIN TEMP:  78; 6HR MAX TEMP:  97;

IMPERIAL       SUNNY     96  53  23 NE8       29.84S
6HR MIN TEMP:  79; 6HR MAX TEMP:  96;

BLYTHE         SUNNY     93  59  31 SE6       29.89R
6HR MIN TEMP:  77; 6HR MAX TEMP:  93;

NEEDLES        PTSUNNY   92  60  34 E13       29.93R
6HR MIN TEMP:  82; 6HR MAX TEMP:  92; 6HR PCP: TRACE;

$$

NVZ020-UTZ003-211900-
SOUTHERN NEVADA-UTAH

CITY           SKY/WX    TMP DP  RH WIND       PRES   REMARKS
LAS VEGAS      MOSUNNY   90  44  20 CALM      29.94F
6HR MIN TEMP:  75; 6HR MAX TEMP:  90;

SALT LAKE CITY PTSUNNY   74  55  51 N10       30.10R
6HR MIN TEMP:  67; 6HR MAX TEMP:  78; 6HR PCP: TRACE;

$$

NMZ009-TXZ055-211900-
NEW MEXICO-WEST TEXAS

CITY           SKY/WX    TMP DP  RH WIND       PRES   REMARKS
ALBUQUERQUE    MOSUNNY   81  41  24 NW3       30.17F
6HR MIN TEMP:  62; 6HR MAX TEMP:  81;

EL PASO        MOSUNNY   89  50  26 S12       30.09S
6HR MIN TEMP:  68; 6HR MAX TEMP:  89;

$$


........................KEY........................
SKY/WX - SKY CONDITION/WEATHER
TMP    - TEMPERATURE IN FAHRENHEIT
DP     - DEW POINT IN FAHRENHEIT
RH     - RELATIVE HUMIDITY IN PERCENT
WIND   - DIRECTION AND SPEED IN MILES PER HOUR (MPH)
VRB    - VARIABLE WIND DIRECTION
PRES   - MEAN SEA LEVEL PRESSURE IN INCHES OF MERCURY
         F - FALLING PRESSURE   R - RISING PRESSURE
         S - STEADY PRESSURE
VSB    - VISIBILITY IN MILES
HX     - HEAT INDEX IN FAHRENHEIT
WCI    - WIND CHILL INDEX IN FAHRENHEIT
TC     - TEMPERATURE IN CELSIUS WHICH IS ALSO KNOWN AS
         TEMPERATURE IN CENTIGRADE
AFB    - AIR FORCE BASE
         LUKE AFB IS LUKE AIR FORCE BASE
         DAVIS-MONTHAN IS DAVIS-MONTHAN AIR FORCE BASE
NAS    - NAVAL AIR STATION
         EL CENTRO NAS IS EL CENTRO NAVAL AIR STATION
N/A    - NOT AVAILABLE


USA.gov is the U.S. government's official web portal to all federal, state and local government web resources and services.